When you browse on this site, cookies collect data to enhance your experience and personalize the content and advertising you see.
Visit our Privacy Policy to learn more. By continuing to use the site, you agree to this use of cookies and data.
  • In Austria
  • List of Countries
  • For 7 days
  • Water Temperature
  • Satellite Maps
  • Weather Map
  • News
  • Weather Widgets
  • user-avatar
    Login

    Hourly Weather Ordino

    Today, 24 March, Sunday

    Time Temperature Precipitation Wind Pressure Humidity
    00:00 +5°C° 0 mm 1 mps 635 mmHg 70%
    01:00 +5°C° 0 mm 1 mps 635 mmHg 70%
    02:00 +4°C° 0 mm 1 mps 635 mmHg 70%
    03:00 +4°C° 0 mm 1 mps 635 mmHg 70%
    04:00 +4°C° 0 mm 1 mps 635 mmHg 68%
    05:00 +4°C° 0 mm 1 mps 635 mmHg 67%
    06:00 +4°C° 0 mm 1 mps 635 mmHg 66%
    07:00 +6°C° 0 mm 1 mps 636 mmHg 58%
    08:00 +9°C° 0 mm 1 mps 637 mmHg 51%
    09:00 +12°C° 0 mm 1 mps 638 mmHg 44%
    10:00 +13°C° 0 mm 1 mps 638 mmHg 41%
    11:00 +14°C° 0 mm 1 mps 638 mmHg 38%
    12:00 +15°C° 0 mm 1 mps 639 mmHg 36%
    13:00 +14°C° 0.1 mm 1 mps 638 mmHg 39%
    14:00 +14°C° 0.1 mm 1 mps 638 mmHg 42%
    15:00 +13°C° 0.1 mm 2 mps 637 mmHg 45%
    16:00 +10°C° 0.4 mm 2 mps 636 mmHg 56%
    17:00 +9°C° 0.4 mm 2 mps 636 mmHg 66%
    18:00 +8°C° 0.4 mm 1 mps 635 mmHg 77%
    19:00 +7°C° 0.1 mm 1 mps 635 mmHg 81%
    20:00 +6°C° 0.1 mm 1 mps 635 mmHg 85%
    21:00 +5°C° 0.1 mm 1 mps 635 mmHg 89%
    22:00 +4°C° 0 mm 1 mps 635 mmHg 89%
    23:00 +4°C° 0 mm 1 mps 634 mmHg 88%

    Tomorrow, 25 March, Monday

    Time Temperature Precipitation Wind Pressure Humidity
    00:00 +3°C° 0 mm 1 mps 634 mmHg 88%
    01:00 +3°C° 0 mm 1 mps 634 mmHg 85%
    02:00 +3°C° 0 mm 1 mps 633 mmHg 82%
    03:00 +3°C° 0 mm 1 mps 633 mmHg 79%
    04:00 +2°C° 0 mm 1 mps 633 mmHg 78%
    05:00 +1°C° 0 mm 2 mps 633 mmHg 77%
    06:00 +1°C° 0 mm 2 mps 633 mmHg 75%
    07:00 +3°C° 0 mm 2 mps 634 mmHg 69%
    08:00 +5°C° 0 mm 2 mps 635 mmHg 63%
    09:00 +7°C° 0 mm 2 mps 635 mmHg 57%
    10:00 +8°C° 0 mm 2 mps 636 mmHg 54%
    11:00 +9°C° 0 mm 2 mps 636 mmHg 52%
    12:00 +10°C° 0 mm 2 mps 636 mmHg 49%
    13:00 +10°C° 0 mm 3 mps 635 mmHg 50%
    14:00 +9°C° 0 mm 3 mps 635 mmHg 52%
    15:00 +9°C° 0 mm 3 mps 634 mmHg 53%
    16:00 +7°C° 0 mm 3 mps 633 mmHg 60%
    17:00 +4°C° 0 mm 3 mps 633 mmHg 68%
    18:00 +1°C° 0 mm 3 mps 632 mmHg 75%
    19:00 0°C° 0 mm 3 mps 632 mmHg 78%
    20:00 -1°C° 0 mm 3 mps 632 mmHg 80%
    21:00 -1°C° 0 mm 3 mps 633 mmHg 82%
    22:00 -1°C° 0 mm 3 mps 633 mmHg 83%
    23:00 -1°C° 0 mm 3 mps 633 mmHg 85%

    Day after tomorrow, 26 March, Tuesday

    Time Temperature Precipitation Wind Pressure Humidity
    00:00 -2°C° 0 mm 4 mps 633 mmHg 87%
    01:00 -2°C° 0 mm 4 mps 633 mmHg 85%
    02:00 -3°C° 0 mm 4 mps 633 mmHg 83%
    03:00 -3°C° 0 mm 4 mps 633 mmHg 82%
    04:00 -4°C° 0 mm 3 mps 633 mmHg 77%
    05:00 -5°C° 0 mm 3 mps 633 mmHg 73%
    06:00 -5°C° 0 mm 3 mps 633 mmHg 68%
    07:00 -2°C° 0 mm 3 mps 634 mmHg 53%
    08:00 -1°C° 0 mm 4 mps 635 mmHg 38%
    09:00 +1°C° 0 mm 4 mps 635 mmHg 24%
    10:00 +4°C° 0 mm 4 mps 636 mmHg 22%
    11:00 +5°C° 0 mm 4 mps 636 mmHg 21%
    12:00 +6°C° 0 mm 4 mps 636 mmHg 19%
    13:00 +6°C° 0 mm 4 mps 636 mmHg 23%
    14:00 +5°C° 0 mm 4 mps 635 mmHg 26%
    15:00 +5°C° 0 mm 4 mps 635 mmHg 29%
    16:00 +3°C° 0 mm 3 mps 634 mmHg 37%
    17:00 +2°C° 0 mm 3 mps 634 mmHg 45%
    18:00 +1°C° 0 mm 2 mps 633 mmHg 53%
    19:00 -1°C° 0 mm 2 mps 634 mmHg 55%
    20:00 -2°C° 0 mm 2 mps 634 mmHg 58%
    21:00 -3°C° 0 mm 2 mps 634 mmHg 61%
    22:00 -3°C° 0 mm 2 mps 634 mmHg 61%
    23:00 -3°C° 0 mm 2 mps 634 mmHg 61%

    27 March, Wednesday

    Time Temperature Precipitation Wind Pressure Humidity
    00:00 -3°C° 0 mm 2 mps 634 mmHg 61%
    01:00 -1°C° 0 mm 1 mps 634 mmHg 61%
    02:00 -1°C° 0 mm 1 mps 634 mmHg 61%
    03:00 -1°C° 0 mm 1 mps 634 mmHg 62%
    04:00 -1°C° 0 mm 1 mps 634 mmHg 58%
    05:00 -1°C° 0 mm 1 mps 634 mmHg 54%
    06:00 -1°C° 0 mm 1 mps 634 mmHg 50%
    07:00 +2°C° 0 mm 1 mps 635 mmHg 41%
    08:00 +5°C° 0 mm 1 mps 637 mmHg 32%
    09:00 +8°C° 0 mm 1 mps 638 mmHg 22%
    10:00 +9°C° 0 mm 1 mps 638 mmHg 23%
    11:00 +9°C° 0 mm 2 mps 638 mmHg 23%
    12:00 +10°C° 0 mm 2 mps 638 mmHg 23%
    13:00 +10°C° 0 mm 2 mps 638 mmHg 27%
    14:00 +9°C° 0 mm 2 mps 637 mmHg 30%
    15:00 +9°C° 0 mm 2 mps 637 mmHg 34%
    16:00 +7°C° 0 mm 2 mps 636 mmHg 43%
    17:00 +5°C° 0 mm 2 mps 636 mmHg 53%
    18:00 +3°C° 0 mm 2 mps 635 mmHg 63%
    19:00 +2°C° 0 mm 2 mps 635 mmHg 66%
    20:00 +2°C° 0 mm 1 mps 635 mmHg 70%
    21:00 +1°C° 0 mm 1 mps 635 mmHg 74%
    22:00 +1°C° 0 mm 1 mps 635 mmHg 73%
    23:00 +1°C° 0 mm 1 mps 636 mmHg 71%

    28 March, Thursday

    Time Temperature Precipitation Wind Pressure Humidity
    00:00 +1°C° 0 mm 1 mps 636 mmHg 70%
    01:00 +1°C° 0 mm 1 mps 636 mmHg 74%
    02:00 +1°C° 0 mm 1 mps 635 mmHg 77%
    03:00 +1°C° 0 mm 1 mps 635 mmHg 81%
    04:00 0°C° 0 mm 1 mps 635 mmHg 81%
    05:00 0°C° 0 mm 1 mps 636 mmHg 82%
    06:00 0°C° 0 mm 1 mps 636 mmHg 82%
    07:00 +3°C° 0 mm 1 mps 637 mmHg 69%
    08:00 +5°C° 0 mm 1 mps 638 mmHg 56%
    09:00 +8°C° 0 mm 1 mps 639 mmHg 42%
    10:00 +9°C° 0 mm 1 mps 639 mmHg 40%
    11:00 +10°C° 0 mm 1 mps 639 mmHg 39%
    12:00 +12°C° 0 mm 1 mps 640 mmHg 37%
    13:00 +11°C° 0 mm 1 mps 639 mmHg 40%
    14:00 +10°C° 0 mm 1 mps 638 mmHg 44%
    15:00 +10°C° 0 mm 1 mps 638 mmHg 48%
    16:00 +8°C° 0 mm 1 mps 637 mmHg 56%
    17:00 +7°C° 0 mm 1 mps 637 mmHg 65%
    18:00 +4°C° 0 mm 0 mps 636 mmHg 74%
    19:00 +5°C° 0 mm 1 mps 637 mmHg 78%
    20:00 +4°C° 0 mm 1 mps 637 mmHg 82%
    21:00 +3°C° 0 mm 1 mps 637 mmHg 86%
    22:00 +3°C° 0 mm 1 mps 637 mmHg 87%
    23:00 +3°C° 0 mm 1 mps 637 mmHg 88%

    29 March, Friday

    Time Temperature Precipitation Wind Pressure Humidity
    00:00 +3°C° 0 mm 1 mps 637 mmHg 89%
    01:00 +2°C° 0 mm 1 mps 636 mmHg 90%
    02:00 +2°C° 0 mm 1 mps 636 mmHg 90%
    03:00 +1°C° 0 mm 0 mps 636 mmHg 91%
    04:00 +2°C° 0 mm 1 mps 636 mmHg 90%
    05:00 +2°C° 0 mm 1 mps 636 mmHg 90%
    06:00 +1°C° 0 mm 1 mps 636 mmHg 90%
    07:00 +3°C° 0.1 mm 1 mps 637 mmHg 81%
    08:00 +5°C° 0.1 mm 1 mps 638 mmHg 71%
    09:00 +7°C° 0.1 mm 1 mps 638 mmHg 61%
    10:00 +7°C° 0.2 mm 1 mps 638 mmHg 63%
    11:00 +7°C° 0.2 mm 1 mps 638 mmHg 64%
    12:00 +7°C° 0.2 mm 1 mps 637 mmHg 65%
    13:00 +6°C° 0.3 mm 1 mps 637 mmHg 67%
    14:00 +6°C° 0.3 mm 1 mps 636 mmHg 68%
    15:00 +6°C° 0.3 mm 1 mps 636 mmHg 70%
    16:00 +6°C° 0.4 mm 1 mps 636 mmHg 74%
    17:00 +5°C° 0.4 mm 1 mps 636 mmHg 78%
    18:00 +4°C° 0.4 mm 1 mps 635 mmHg 83%
    19:00 +4°C° 0.2 mm 1 mps 636 mmHg 85%
    20:00 +4°C° 0.2 mm 1 mps 636 mmHg 87%
    21:00 +3°C° 0.2 mm 1 mps 636 mmHg 89%
    22:00 +3°C° 0.1 mm 1 mps 636 mmHg 90%
    23:00 +2°C° 0.1 mm 1 mps 635 mmHg 90%
    Show more